This demonstration page uses our WeatherBlox Daily Observations layout. Learn more.

Left ArrowRight Arrow

Hourly Observations for September 14, 2020

Temp ( °F °C ) Dew Point ( °F °C ) Humidity (%) Winds ( mph kmh ) Pressure ( in mb ) Visibility ( mi km ) Precip ( " mm )
12:53 am 00:53 Mostly Cloudy 67 19.4 65 18.3 93 93 N 7 11 30.10 1019 10 16 0.00 0.00
1:53 am 01:53 Mostly Clear 67 19.4 65 18.3 93 93 N 6 9 30.10 1019 10 16 0.00 0.00
2:53 am 02:53 Clear 67 19.4 64 17.8 91 91 N 7 11 30.08 1019 10 16 0.00 0.00
3:53 am 03:53 Mostly Cloudy 66 18.9 64 17.8 93 93 N 7 11 30.09 1019 10 16 0.00 0.00
4:53 am 04:53 Clear 67 19.4 64 17.8 91 91 NNE 6 9 30.08 1019 10 16 0.00 0.00
5:53 am 05:53 Cloudy 67 19.4 64 17.8 91 91 N 7 11 30.09 1019 10 16 0.00 0.00
6:49 am 06:49 Mostly Cloudy 66 19 64 18 94 94 NNE 7 11 30.11 1020 10 16 0.00 0.00
6:53 am 06:53 Mostly Cloudy 66 18.9 64 17.8 93 93 NNE 8 13 30.09 1019 10 16 0.00 0.00
7:53 am 07:53 Cloudy 66 18.9 64 17.8 93 93 NNW 6 9 30.12 1020 10 16 0.00 0.00
8:53 am 08:53 Cloudy 67 19.4 64 17.8 91 91 NE 6 9 30.15 1021 10 16 0.00 0.00
9:53 am 09:53 Cloudy 69 20.6 65 18.3 87 87 E 7 11 30.16 1021 10 16 0.00 0.00
10:53 am 10:53 Cloudy 71 21.7 65 18.3 81 81 E 7 11 30.17 1022 10 16 0.00 0.00
11:16 am 11:16 Cloudy 72 22.2 65 18.3 79 79 ESE 9 15 30.16 1021 10 16 0.00 0.00
11:53 am 11:53 Cloudy 73 22.8 64 17.8 74 74 E 9 15 30.18 1022 10 16 0.00 0.00
12:53 pm 12:53 Mostly Cloudy 74 23.3 62 16.7 67 67 ESE 9 15 30.17 1022 10 16 0.00 0.00
1:53 pm 13:53 Cloudy 75 23.9 60 15.6 60 60 E 6 9 30.15 1021 10 16 0.00 0.00
2:53 pm 14:53 Partly Cloudy 76 24.4 58 14.4 54 54 SE 9 15 30.14 1021 10 16 0.00 0.00
3:53 pm 15:53 Cloudy 75 23.9 57 13.9 54 54 ESE 7 11 30.13 1020 10 16 0.00 0.00
4:53 pm 16:53 Cloudy with Light Rain 74 23.3 59 15 60 60 SSW 6 9 30.11 1020 10 16 0.00 0.00
5:53 pm 17:53 Mostly Cloudy 73 22.8 60 15.6 64 64 SW 8 13 30.11 1020 10 16 0.00 0.00
6:53 pm 18:53 Mostly Sunny 72 22.2 60 15.6 66 66 WSW 7 11 30.11 1020 10 16 0.00 0.00
7:53 pm 19:53 Sunny 71 21.7 58 14.4 63 63 SSW 6 9 30.11 1020 10 16 0.00 0.00
8:53 pm 20:53 Clear 69 20.6 60 15.6 73 73 SSW 3 6 30.11 1020 10 16 0.00 0.00
9:53 pm 21:53 Clear 69 20.6 61 16.1 76 76 W 7 11 30.15 1021 10 16 0.00 0.00
10:53 pm 22:53 Mostly Clear 68 20 60 15.6 76 76 W 6 9 30.14 1021 10 16 0.00 0.00
11:53 pm 23:53 Partly Cloudy 67 19.4 60 15.6 79 79 Calm 30.14 1021 10 16 0.00 0.00

Powered by AerisWeather